Location: Arbon
(43.0005°N, 0.7472°E)
Time: 08:45:03
(UTC+00:00)

Vanguard 2 Rocket - Pass Details

Date: 28 November 2020
Orbit: 554 x 3326 km, 32.9° (Epoch: 28 January)

Event Time Altitude Azimuth Distance (km) Brightness Sun altitude
Rises 07:14:02 0° 226° (SW) 6,994 11.3 0.5°
Reaches altitude 10° 07:18:50 10° 220° (SW) 6,149 11.0 1.3°
Maximum altitude 07:37:13 45° 156° (SSE) 3,941 10.8 4.1°
Drops below altitude 10° 07:52:40 10° 92° (E) 5,262 11.8 6.4°
Sets 07:56:22 0° 86° (E) 5,956 11.9 6.9°
